Volver al catálogo

ECHO 1 DEB

METAL OBJ

ActivoLEO
NORAD 51·DEBRIS·🇺🇸 United States

Lanzado Aug 12, 1960 desde Cape Canaveral Space Force Station

Loading…

Próximos Pases (próximas 24 horas)

TLE

ActualizadoSource: Space-Track

Época: Sep 8, 2026, 01:00 UTC

1 00051U 60009C   26251.04220199  .00000001  00000-0  83688-3 0  9991
2 00051  47.2112 152.9718 0108419  82.3280 278.9805 12.18384027941272

Sigue ECHO 1 DEB en tiempo real con AllMySat

Download on the App Store